Regional Weather Roundup
Issued by NWS

Home | Current Version | Previous Version | Text Only | Print | Product List | Glossary On
Versions: 1 2 3 4 5 6 7 8 9 10 11 12 13 14 15 16 17 18 19 20 21 22 23 24 25 26 27 28 29 30 31 32 33 34 35 36 37 38 39 40 41 42 43 44 45 46 47 48 49 50
000
ASUS44 KMEG 291910
RWRTN
TENNESSEE HOURLY STATE WEATHER ROUNDUP
NATIONAL WEATHER SERVICE MEMPHIS TN
200 PM CDT MON MAY 29 2017

TNZ002-004-019-021-049-052-054-088>092-292000-
WEST TENNESSEE

CITY           SKY/WX    TMP DP  RH WIND       PRES   REMARKS
MEMPHIS INTL   CLOUDY    85  62  46 W5        30.00F
NWS MEMPHIS      N/A     83 N/A N/A MISG        N/A
JACKSON        CLOUDY    83  59  44 CALM      30.00F
DYERSBURG        N/A    N/A N/A N/A MISG        N/A
SOMERVILLE     SUNNY     81  59  47 CALM      30.00F
COVINGTON      SUNNY     82  57  42 CALM      30.00F
UNION CITY     SUNNY     84  54  34 VRB6G14   29.98F
BOLIVAR        SUNNY     81  59  47 VRB5      30.00F
PARIS          MOSUNNY   82  57  42 VRB5G14   29.99F
HUNTINGDON     MOSUNNY   84  57  39 SW8       29.99F
LEXINGTON      MOSUNNY   81  63  54 VRB3      30.00F
SELMER         MOSUNNY   77  66  69 CALM      30.00F
SAVANNAH       PTSUNNY   79  66  65 CALM      29.99F
$$

TNZ008-025-027-028-033-062-065-066-292000-
NORTH MIDDLE TENNESSEE

CITY           SKY/WX    TMP DP  RH WIND       PRES   REMARKS
NASHVILLE      PTSUNNY   80  62  54 S7        30.02F
PORTLAND       MOSUNNY   81  63  54 S12       30.01S
CLARKSVILLE    MOSUNNY   81  54  39 SW10      29.99F
SMYRNA         MOSUNNY   80  63  55 VRB7      30.03F
COOKEVILLE     SUNNY     75  64  69 MISG      30.04S
GALLATIN       MOSUNNY   79  61  53 VRB6      30.04F
CROSSVILLE     MOSUNNY   71  60  68 S6        30.07F
$$

TNZ061-075-076-078-094-096-097-292000-
SOUTH MIDDLE TENNESSEE

CITY           SKY/WX    TMP DP  RH WIND       PRES   REMARKS
FAYETTEVILLE   PTSUNNY   77  66  69 S3        30.02F
TULLAHOMA      CLOUDY    70  66  88 W3        30.06F
WINCHESTER     PTSUNNY   79  66  65 SW8         N/A
MCMINNVILLE    MOSUNNY   75  64  69 W7        30.05R
COLUMBIA       PTSUNNY   77  63  61 CALM      30.00F
SHELBYVILLE    PTSUNNY   72  66  83 S8G15     30.03F
$$

TNZ017-018-042-046-047-292000-
NORTHEAST TENNESSEE

CITY           SKY/WX    TMP DP  RH WIND       PRES   REMARKS
TRI CITIES     CLOUDY    75  62  64 W9        30.05F
ELIZABETHTON   CLOUDY    75  61  60 W6        30.04F
$$

TNZ012-013-036-069-073-074-292000-
CENTRAL EAST TENNESSEE

CITY           SKY/WX    TMP DP  RH WIND       PRES   REMARKS
KNOXVILLE      LGT RAIN  74  66  76 SW9       30.03F
OAK RIDGE      CLOUDY    77  64  64 VRB3      30.04F
DOWNTOWN KNOXV MOSUNNY   75  68  78 SW5       30.03F
GATLINBURG     SUNNY     72  64  78 SW6       30.04F
MORRISTOWN     PTSUNNY   75  64  69 SW10      30.04F
JACKSBORO      MOSUNNY   73  66  78 S7        30.06F
$$

TNZ083-085-099-292000-
SOUTHEAST TENNESSEE

CITY           SKY/WX    TMP DP  RH WIND       PRES   REMARKS
CHATTANOOGA    PTSUNNY   78  66  66 N3        30.03F
$$

SKY/WX REPORTED AS FAIR MEANS FEW OR NO CLOUDS BELOW
12 THOUSAND FEET.




USA.gov is the U.S. government's official web portal to all federal, state and local government web resources and services.